Flag for Germany Weather past 2 weeks in Winsen (Luhe), Lower Saxony, Germany

Now
54 °F

Light rain. Broken clouds.


Feels Like: 51 °F
Forecast: 41 / 62 °F
Wind: 8 mph from West

Location: Hamburg-Finkenwerder

Current Time: May 28, 2015 at 5:30:57 PM

Latest Report: May 28, 2015 at 4:50 PM


Visibility: N/A

Pressure: 29.86 "Hg

Humidity: 100%

Dew point: 54 °F

Location of Winsen (Luhe)Location

Historic Weather in Winsen (Luhe) — Graph

°F

Winsen (Luhe) temperature yesterday

Maximum temperature yesterday: 59 °F (at 2:20 PM)
Minimum temperature yesterday: 48 °F (at 6:20 AM)
Average temperature yesterday: 55 °F

Past Weeks' High & Low Weather Summary

 TemperatureHumidityPressure
High66 °F (May 22, 2:20 PM)100% (May 16, 5:20 PM)30.30 "Hg (May 16, 5:20 PM)
Low43 °F (May 21, 6:20 AM)45% (May 19, 3:20 PM)29.59 "Hg (May 19, 6:20 AM)
Average54 °F71%30.00 "Hg
* Reported May 13 4:20 PM — May 28 4:20 PM, Winsen (Luhe), Weather by CustomWeather, © 2015

Note: Actual official high and low records may vary slightly from our data, if they occured in-between our weather recording intervals... More about our weather records

Advertising

Winsen (Luhe) weather history for previous 24 hours

 ConditionsComfort  
Time TempWeatherWind HumidityBarometerVisibility
4:20 PM
Thu, May 28
54 °FSprinkles. Broken clouds.8 mph100%29.86 "Hg6 mi
3:50 PM54 °FScattered showers. Partly sunny.7 mph100%29.83 "HgN/A
3:20 PM54 °FSprinkles. Broken clouds.10 mph100%29.83 "Hg6 mi
2:50 PM54 °FThundershowers. Partly sunny.18 mph94%29.83 "HgN/A
2:20 PM59 °FScattered showers. Partly sunny.14 mph82%29.80 "HgN/A
1:50 PM57 °FPartly sunny.13 mph94%29.80 "HgN/A
1:20 PM57 °FSprinkles. Partly sunny.14 mph88%29.83 "Hg4 mi
12:50 PM59 °FScattered showers. Partly sunny.12 mph77%29.80 "HgN/A
12:20 PM57 °FSprinkles. Partly sunny.15 mph82%29.83 "Hg5 mi
11:50 AM59 °FPartly sunny.15 mph68%29.83 "HgN/A
11:20 AM59 °FPartly sunny.15 mph68%29.83 "HgN/A
10:50 AM59 °FBroken clouds.16 mph68%29.83 "HgN/A
10:20 AM59 °FBroken clouds.17 mph63%29.83 "HgN/A
9:50 AM59 °FPartly sunny.18 mph63%29.83 "HgN/A
9:20 AM57 °FBroken clouds.16 mph63%29.83 "HgN/A
8:50 AM55 °FPassing clouds.13 mph63%29.86 "HgN/A
8:20 AM55 °FPassing clouds.13 mph63%29.86 "HgN/A
7:50 AM54 °FPassing clouds.10 mph63%29.86 "HgN/A
7:20 AM54 °FPartly sunny.10 mph63%29.86 "HgN/A
6:50 AM54 °FSunny.10 mph63%29.86 "Hg10 mi
6:20 AM54 °FSunny.12 mph63%29.89 "Hg10 mi
7:50 PM
Wed, May 27
57 °FPassing clouds.5 mph55%30.09 "HgN/A
7:20 PM59 °FSunny.7 mph55%30.09 "Hg10 mi
6:50 PM59 °FPartly sunny.8 mph51%30.09 "HgN/A
6:20 PM59 °FScattered clouds.12 mph51%30.09 "HgN/A
5:50 PM59 °FScattered clouds.14 mph51%30.12 "HgN/A
5:20 PM59 °FPartly sunny.10 mph51%30.12 "HgN/A
Weather by CustomWeather, © 2015

See weather overviewHow to use our weather pages